Regional Weather Roundup
Issued by NWS

Home | Current Version | Previous Version | Graphics & Text | Print | Product List | Glossary On
Versions: 1 2 3 4 5 6 7 8 9 10 11 12 13 14 15 16 17 18 19 20 21 22 23 24 25 26 27 28 29 30 31 32 33 34 35 36 37 38 39 40 41 42 43 44 45 46 47 48 49 50
000
ASUS43 KTOP 220359
RWRKS

WEATHER ROUNDUP FOR KANSAS
NATIONAL WEATHER SERVICE GOODLAND KS
1100 PM CDT SUN SEP 21 2014

NOTE:  "FAIR" INDICATES FEW OR NO CLOUDS BELOW 12,000 FEET WITH NO
SIGNIFICANT WEATHER AND/OR OBSTRUCTIONS TO VISIBILITY.

KSZ001>006-013>018-027>032-041>047-220500-
NORTHWEST KANSAS

CITY           SKY/WX    TMP DP  RH WIND       PRES   REMARKS
GOODLAND       MOCLDY    57  44  62 SE6       30.34S
HAYS           CLEAR     57  41  54 E3        30.30R
HILL CITY      CLEAR     55  43  63 CALM      30.31R
RUSSELL        CLEAR     60  43  53 E7        30.28R
$$

KSZ061>065-074>080-084>089-220500-
SOUTHWEST KANSAS

CITY           SKY/WX    TMP DP  RH WIND       PRES   REMARKS
DODGE CITY     CLOUDY    62  44  51 E6        30.31R
ELKHART          N/A     59  45  60 SE8         N/A
GARDEN CITY    PTCLDY    62  42  47 E9        30.31R
GREAT BEND     CLEAR     63  46  55 E5        30.29S
LIBERAL        PTCLDY    66  43  42 E10       30.31S
$$

KSZ066>073-081>083-090>101-220500-
SOUTHEAST KANSAS

CITY           SKY/WX    TMP DP  RH WIND       PRES   REMARKS
CHANUTE        CLEAR     61  50  67 N3        30.24R
HUTCHINSON     CLEAR     62  45  53 NE5       30.27R
NEWTON         CLEAR     63  45  51 NE5       30.29R
PARSONS        CLEAR     58  52  80 N3        30.24R
WICHITA INTL   PTCLDY    65  46  50 NE6       30.26R
WICHITA JABRA  CLEAR     60  45  57 N7        30.26R
WICHITA MCCONL CLEAR     63  43  48 N6        30.26R HAZE
WINFIELD       CLEAR     59  50  72 NE3       30.25R
$$

KSZ007>012-019>026-033>040-048>060-102>105-220500-
NORTHEAST KANSAS

CITY           SKY/WX    TMP DP  RH WIND       PRES   REMARKS
CONCORDIA      CLEAR     59  47  64 CALM      30.28R
EMPORIA        CLEAR     59  49  69 N6        30.26R
LAWRENCE       CLEAR     52  48  86 N5        30.25R
MANHATTAN      CLEAR     56  48  74 CALM      30.27R
OLATHE IND     CLEAR     56  49  77 N7        30.25R
OLATHE EXE     CLEAR     61  49  64 N3        30.24R
SALINA         CLEAR     62  46  55 N3        30.28R
TOPEKA BILLARD CLEAR     59  50  72 N7        30.26R
TOPEKA FORBES  CLEAR     60  49  66 N5        30.25R
$$


USA.gov is the U.S. government's official web portal to all federal, state and local government web resources and services.